Location: ActonStarParty
(42.4766°N, 71.4538°W)
Time: 22:32:01
(UTC-04:00)

Amateur Radio Satellites - All Passes

Search period start: 31 October 2014 22:02
Search period end: 01 November 2014 22:02
Location: ActonStarParty, 42.4766°N, 71.4538°W

Satellite Date Start Highest point End Downlink Frequencies (MHz)
Time Altitude Azimuth
UKube-1 31 Oct 22:24:42 22:28:28 28° 264° (W) 22:32:15 145.840 MHz, 145.915 MHz
KITSAT 1 31 Oct 22:30:24 22:32:49 12° 263° (W) 22:35:13 435.175 FM
ZACube-1 31 Oct 22:33:31 22:37:59 58° 260° (W) 22:42:23 437.345 MHz
Oscar 11 31 Oct 23:01:28 23:03:32 13° 270° (W) 23:05:36 145.825 FM, Beacon 2401.500 USB
UOSAT-12 31 Oct 23:08:51 23:11:23 15° 252° (WSW) 23:13:53 437.025 FM, 437.400 FM
FUNcube-1 31 Oct 23:17:36 23:21:01 21° 266° (W) 23:24:24 145.950 - 145.970 MHz USB
MaSat-1 31 Oct 23:26:32 23:28:40 15° 306° (NW) 23:30:41 437.345 MHz
RS-15 01 Nov 00:07:01 00:16:18 31° 333° (NNW) 00:25:43 29.354 - 29.394 USB, Beacon 29.352 USB
JAS-1B 01 Nov 00:28:58 00:29:22 10° 87° (E) 00:29:47 435.800 - 435.900 CW/SSB
Oscar 19 01 Nov 00:55:54 00:56:53 11° 88° (E) 00:57:52 437.125 CW, 437.150 USB
Oscar 16 01 Nov 01:40:06 01:44:37 31° 96° (E) 01:49:06 437.025 USB, Beacon 2401.1428
Sapphire 01 Nov 01:53:49 01:58:53 43° 112° (ESE) 02:03:59 437.095 MHz 1200 baud AX-25 AFSK
AO-Echo 01 Nov 02:11:01 02:15:48 33° 96° (E) 02:20:31 ?
JAS-1B 01 Nov 02:13:43 02:20:51 63° 102° (ESE) 02:29:21 435.800 - 435.900 CW/SSB
Uribyol 2 01 Nov 02:14:05 02:18:28 27° 95° (E) 02:22:48 436.500 FM
PCSat 01 Nov 02:15:03 02:20:25 71° 117° (ESE) 02:25:50 145.825 MHz
ITAMSAT 1 01 Nov 02:22:03 02:26:38 30° 96° (E) 02:31:09 435.822 SSB
RS-15 01 Nov 02:25:18 02:33:32 23° 8° (N) 02:41:55 29.354 - 29.394 USB, Beacon 29.352 USB
Oscar 19 01 Nov 02:31:45 02:36:54 89° 285° (WNW) 02:42:02 437.125 CW, 437.150 USB
AO-27 01 Nov 03:09:24 03:14:40 83° 104° (ESE) 03:19:52 436.795 MHz FM
Oscar 16 01 Nov 03:19:23 03:23:57 33° 293° (WNW) 03:28:29 437.025 USB, Beacon 2401.1428
Gurwin Techsat 1B 01 Nov 03:27:56 03:33:15 67° 102° (ESE) 03:38:31 435.225 FM
TMSAT-1 01 Nov 03:33:58 03:39:12 57° 100° (E) 03:44:24 436.925 FM
Sapphire 01 Nov 03:37:39 03:42:26 31° 311° (NW) 03:47:14 437.095 MHz 1200 baud AX-25 AFSK
OPAL 01 Nov 03:42:19 03:45:19 16° 58° (ENE) 03:48:18 ?
AO-Echo 01 Nov 03:49:46 03:54:30 33° 293° (WNW) 03:59:11 ?
Uribyol 2 01 Nov 03:53:14 03:58:01 39° 292° (WNW) 04:02:47 436.500 FM
AO-7 01 Nov 03:57:51 04:04:32 26° 94° (E) 04:11:11 29.400 - 29.500 MHz
PCSat 01 Nov 04:00:17 04:04:22 21° 317° (NW) 04:08:29 145.825 MHz
ITAMSAT 1 01 Nov 04:01:25 04:06:07 35° 293° (WNW) 04:10:48 435.822 SSB
Uosat F 01 Nov 04:04:18 04:07:07 15° 91° (E) 04:09:55 435.120 FM
JAS-1B 01 Nov 04:05:16 04:11:07 29° 297° (WNW) 04:17:50 435.800 - 435.900 CW/SSB
Oscar 19 01 Nov 04:13:25 04:15:29 12° 302° (WNW) 04:17:32 437.125 CW, 437.150 USB
RS-15 01 Nov 04:39:15 04:49:47 45° 41° (NE) 05:00:40 29.354 - 29.394 USB, Beacon 29.352 USB
AO-27 01 Nov 04:50:49 04:53:27 14° 302° (WNW) 04:56:06 436.795 MHz FM
Gurwin Techsat 1B 01 Nov 05:09:13 05:12:39 18° 299° (WNW) 05:16:04 435.225 FM
TMSAT-1 01 Nov 05:14:53 05:18:41 20° 298° (WNW) 05:22:28 436.925 FM
OPAL 01 Nov 05:18:32 05:23:38 72° 255° (WSW) 05:28:41 ?
Saudisat 1A 01 Nov 05:19:05 05:23:10 40° 117° (ESE) 05:27:17 436.775 MHz
STRAND 1 01 Nov 05:38:30 05:42:26 23° 63° (ENE) 05:46:23 ?
Uosat F 01 Nov 05:41:21 05:46:22 66° 287° (WNW) 05:51:20 435.120 FM
JAS-2 01 Nov 05:45:05 05:52:42 49° 97° (E) 06:00:00 435.800 - 435.900 CW/SSB, 435.910 FM
AO-7 01 Nov 05:49:40 05:57:57 71° 292° (WNW) 06:06:13 29.400 - 29.500 MHz
Hamsat 01 Nov 06:25:31 06:29:42 60° 100° (E) 06:33:54 145.90 MHz
SO-67 01 Nov 06:48:35 06:49:31 11° 91° (E) 06:50:27 435.3500 MHz FM
RS-15 01 Nov 06:51:44 07:02:41 64° 245° (WSW) 07:14:08 29.354 - 29.394 USB, Beacon 29.352 USB
Saudisat 1A 01 Nov 06:59:10 07:02:51 26° 315° (NW) 07:06:34 436.775 MHz
STRAND 1 01 Nov 07:16:20 07:21:17 48° 260° (W) 07:26:17 ?
JAS-2 01 Nov 07:30:21 07:37:27 39° 296° (WNW) 07:44:24 435.800 - 435.900 CW/SSB, 435.910 FM
MaSat-1 01 Nov 07:33:08 07:35:37 74° 245° (WSW) 07:37:57 437.345 MHz
AO-7 01 Nov 07:44:20 07:49:18 18° 313° (NW) 07:54:18 29.400 - 29.500 MHz
Hamsat 01 Nov 08:03:08 08:05:09 13° 297° (WNW) 08:07:11 145.90 MHz
SO-67 01 Nov 08:19:25 08:22:42 42° 286° (WNW) 08:25:58 435.3500 MHz FM
KITSAT 1 01 Nov 09:08:22 09:12:59 17° 100° (E) 09:17:36 435.175 FM
RS-15 01 Nov 09:08:36 09:12:44 13° 265° (W) 09:16:57 29.354 - 29.394 USB, Beacon 29.352 USB
HO-68 01 Nov 09:17:48 09:24:37 44° 99° (E) 09:31:23 435.675 MHz FM
PCSat 01 Nov 09:20:38 09:23:17 14° 36° (NE) 09:25:55 145.825 MHz
ISS 01 Nov 09:52:17 09:55:31 52° 141° (SE) 09:58:46 145.800 FM
UKube-1 01 Nov 10:11:31 10:15:43 44° 99° (E) 10:19:52 145.840 MHz, 145.915 MHz
ZACube-1 01 Nov 10:22:40 10:26:06 24° 95° (E) 10:29:29 437.345 MHz
Sapphire 01 Nov 10:40:56 10:46:05 41° 52° (NE) 10:51:11 437.095 MHz 1200 baud AX-25 AFSK
Oscar 11 01 Nov 10:45:39 10:49:58 76° 285° (WNW) 10:54:16 145.825 FM, Beacon 2401.500 USB
KITSAT 1 01 Nov 10:59:04 11:07:08 83° 119° (ESE) 11:15:15 435.175 FM
SO-50 01 Nov 10:59:59 11:04:26 68° 121° (ESE) 11:09:02 436.795 FM
PCSat 01 Nov 11:02:23 11:07:48 64° 57° (ENE) 11:13:10 145.825 MHz
FUNcube-1 01 Nov 11:04:46 11:08:58 73° 102° (ESE) 11:13:06 145.950 - 145.970 MHz USB
HO-68 01 Nov 11:05:42 11:12:13 39° 297° (WNW) 11:18:42 435.675 MHz FM
ISS 01 Nov 11:29:25 11:32:21 28° 339° (NNW) 11:35:18 145.800 FM
UOSAT-12 01 Nov 11:40:19 11:43:23 18° 110° (ESE) 11:46:29 437.025 FM, 437.400 FM
UKube-1 01 Nov 11:48:34 11:51:34 18° 296° (WNW) 11:54:33 145.840 MHz, 145.915 MHz
ZACube-1 01 Nov 11:58:54 12:02:29 28° 291° (WNW) 12:06:02 437.345 MHz
Oscar 19 01 Nov 12:12:06 12:15:36 19° 62° (ENE) 12:19:05 437.125 CW, 437.150 USB
Sapphire 01 Nov 12:24:39 12:29:21 31° 251° (WSW) 12:34:02 437.095 MHz 1200 baud AX-25 AFSK
SO-50 01 Nov 12:42:10 12:45:28 19° 321° (NW) 12:48:50 436.795 FM
FUNcube-1 01 Nov 12:43:42 12:44:44 11° 299° (WNW) 12:45:45 145.950 - 145.970 MHz USB
PCSat 01 Nov 12:47:01 12:50:40 19° 255° (WSW) 12:54:18 145.825 MHz
AO-27 01 Nov 12:50:55 12:54:27 19° 61° (ENE) 12:57:59 436.795 MHz FM
KITSAT 1 01 Nov 12:56:40 13:03:28 29° 322° (NW) 13:10:18 435.175 FM
Oscar 16 01 Nov 12:57:34 13:02:30 48° 70° (ENE) 13:07:26 437.025 USB, Beacon 2401.1428
JAS-1B 01 Nov 13:01:42 13:07:10 49° 69° (ENE) 13:12:42 435.800 - 435.900 CW/SSB
ISS 01 Nov 13:07:35 13:09:50 17° 359° (N) 13:12:05 145.800 FM
Gurwin Techsat 1B 01 Nov 13:12:37 13:15:43 16° 60° (ENE) 13:18:49 435.225 FM
UOSAT-12 01 Nov 13:18:29 13:23:04 58° 307° (NW) 13:27:44 437.025 FM, 437.400 FM
TMSAT-1 01 Nov 13:19:02 13:21:30 14° 58° (ENE) 13:23:59 436.925 FM
AO-Echo 01 Nov 13:24:24 13:29:08 43° 70° (ENE) 13:34:02 ?
Uribyol 2 01 Nov 13:32:23 13:37:18 44° 69° (ENE) 13:42:15 436.500 FM
ITAMSAT 1 01 Nov 13:40:31 13:45:31 49° 70° (ENE) 13:50:33 435.822 SSB
Saudisat 1A 01 Nov 13:44:54 13:49:06 40° 50° (NE) 13:53:17 436.775 MHz
Oscar 19 01 Nov 13:49:25 13:54:28 59° 259° (W) 13:59:33 437.125 CW, 437.150 USB
AO-27 01 Nov 14:28:18 14:33:27 62° 258° (WSW) 14:38:40 436.795 MHz FM
Oscar 16 01 Nov 14:38:13 14:42:05 21° 267° (W) 14:45:57 437.025 USB, Beacon 2401.1428
ISS 01 Nov 14:44:27 14:47:20 26° 20° (NNE) 14:50:13 145.800 FM
Gurwin Techsat 1B 01 Nov 14:49:44 14:55:02 75° 257° (WSW) 15:00:23 435.225 FM
JAS-1B 01 Nov 14:54:00 14:58:16 21° 268° (W) 15:02:32 435.800 - 435.900 CW/SSB
TMSAT-1 01 Nov 14:55:21 15:00:39 89° 256° (WSW) 15:06:00 436.925 FM
AO-7 01 Nov 14:57:28 15:04:56 40° 60° (ENE) 15:12:25 29.400 - 29.500 MHz
KITSAT 1 01 Nov 14:58:41 15:02:10 13° 351° (N) 15:05:39 435.175 FM
UOSAT-12 01 Nov 15:02:24 15:04:14 12° 328° (NNW) 15:06:05 437.025 FM, 437.400 FM
AO-Echo 01 Nov 15:04:08 15:08:05 23° 267° (W) 15:12:09 ?
Uribyol 2 01 Nov 15:12:47 15:16:57 24° 266° (W) 15:21:08 436.500 FM
Uosat F 01 Nov 15:17:49 15:21:45 24° 64° (ENE) 15:25:42 435.120 FM
ITAMSAT 1 01 Nov 15:21:20 15:25:16 21° 267° (W) 15:29:13 435.822 SSB
Saudisat 1A 01 Nov 15:24:56 15:28:27 23° 247° (WSW) 15:31:56 436.775 MHz
JAS-2 01 Nov 15:58:57 16:03:55 23° 57° (ENE) 16:09:19 435.800 - 435.900 CW/SSB, 435.910 FM
ISS 01 Nov 16:20:56 16:24:14 61° 218° (SW) 16:27:32 145.800 FM
TMSAT-1 01 Nov 16:40:01 16:41:18 11° 273° (W) 16:42:34 436.925 FM
AO-7 01 Nov 16:49:33 16:57:31 51° 259° (WSW) 17:05:32 29.400 - 29.500 MHz
Uosat F 01 Nov 16:55:28 17:00:15 44° 261° (W) 17:05:06 435.120 FM
KITSAT 1 01 Nov 16:56:52 17:01:43 17° 22° (NNE) 17:06:33 435.175 FM
Hamsat 01 Nov 17:19:20 17:23:19 45° 72° (ENE) 17:27:18 145.90 MHz
OPAL 01 Nov 17:28:16 17:32:26 27° 97° (E) 17:36:34 ?
JAS-2 01 Nov 17:41:49 17:48:08 72° 258° (WSW) 17:55:21 435.800 - 435.900 CW/SSB, 435.910 FM
SO-50 01 Nov 17:51:38 17:54:18 15° 35° (NE) 17:56:59 436.795 FM
KITSAT 1 01 Nov 18:51:45 18:59:30 46° 48° (NE) 19:07:10 435.175 FM
SO-67 01 Nov 18:52:02 18:55:25 61° 76° (ENE) 18:58:50 435.3500 MHz FM
Hamsat 01 Nov 18:57:01 18:59:30 15° 269° (W) 19:02:00 145.90 MHz
OPAL 01 Nov 19:06:51 19:11:23 37° 294° (WNW) 19:15:53 ?
RS-15 01 Nov 19:08:30 19:15:26 19° 99° (E) 19:22:18 29.354 - 29.394 USB, Beacon 29.352 USB
STRAND 1 01 Nov 19:26:06 19:31:10 55° 101° (E) 19:36:11 ?
SO-50 01 Nov 19:30:50 19:35:42 73° 55° (NE) 19:40:35 436.795 FM
JAS-2 01 Nov 19:32:58 19:34:39 11° 279° (W) 19:36:24 435.800 - 435.900 CW/SSB, 435.910 FM
HO-68 01 Nov 19:47:15 19:53:37 36° 62° (ENE) 20:00:00 435.675 MHz FM
UOSAT-12 01 Nov 20:08:00 20:11:45 23° 42° (NE) 20:15:27 437.025 FM, 437.400 FM
KITSAT 1 01 Nov 20:47:20 20:54:53 46° 249° (WSW) 21:02:25 435.175 FM
STRAND 1 01 Nov 21:06:15 21:09:56 20° 298° (WNW) 21:13:36 ?
UKube-1 01 Nov 21:07:26 21:11:32 42° 71° (ENE) 21:15:40 145.840 MHz, 145.915 MHz
MaSat-1 01 Nov 21:08:23 21:11:24 22° 109° (ESE) 21:14:12 437.345 MHz
SO-50 01 Nov 21:13:01 21:15:41 15° 252° (WSW) 21:18:21 436.795 FM
RS-15 01 Nov 21:14:59 21:25:58 82° 120° (ESE) 21:36:56 29.354 - 29.394 USB, Beacon 29.352 USB
ZACube-1 01 Nov 21:19:44 21:23:20 24° 67° (ENE) 21:26:52 437.345 MHz
HO-68 01 Nov 21:34:17 21:41:07 47° 260° (W) 21:48:02 435.675 MHz FM
Oscar 11 01 Nov 21:40:58 21:45:17 89° 82° (E) 21:49:37 145.825 FM, Beacon 2401.500 USB
UOSAT-12 01 Nov 21:47:37 21:52:14 56° 241° (WSW) 21:56:45 437.025 FM, 437.400 FM
